Time,TemperatureF,DewpointF,PressureIn,WindDirection,WindDirectionDegrees,WindSpeedMPH,WindSpeedGustMPH,Humidity,HourlyPrecipIn,Conditions,Clouds,dailyrainin,SoftwareType,DateUTC
2013-09-07 00:00:00,72.3,55.3,30.15,SE,135,0.0,0.0,55,0.00,,BKN250,0.00,VWS V14.01,2013-09-07 04:00:00,
2013-09-07 00:01:00,72.3,56.2,30.15,SE,135,0.0,0.0,57,0.00,,CLR,0.00,VWS V14.01,2013-09-07 04:01:00,
2013-09-07 00:02:00,72.3,56.2,30.15,SE,135,0.0,0.0,57,0.00,,CLR,0.00,VWS V14.01,2013-09-07 04:02:00,
2013-09-07 00:07:00,72.1,55.6,30.15,SE,135,0.0,0.0,56,0.00,,CLR,0.00,VWS V14.01,2013-09-07 04:07:00,
2013-09-07 00:12:00,72.1,55.1,30.15,SE,135,0.0,0.0,55,0.00,,CLR,0.00,VWS V14.01,2013-09-07 04:12:00,
2013-09-07 00:17:00,72.0,54.9,30.15,SE,135,0.0,0.0,55,0.00,,CLR,0.00,VWS V14.01,2013-09-07 04:17:00,
2013-09-07 00:22:00,71.8,54.8,30.15,SE,135,0.0,0.0,55,0.00,,CLR,0.00,VWS V14.01,2013-09-07 04:22:00,
2013-09-07 00:27:00,71.8,54.8,30.15,SE,135,0.0,0.0,55,0.00,,CLR,0.00,VWS V14.01,2013-09-07 04:27:00,
2013-09-07 00:32:00,71.6,54.1,30.15,SE,135,0.0,0.0,54,0.00,,CLR,0.00,VWS V14.01,2013-09-07 04:32:00,
2013-09-07 00:37:00,71.6,54.6,30.15,SE,135,0.0,0.0,55,0.00,,CLR,0.00,VWS V14.01,2013-09-07 04:37:00,
2013-09-07 00:42:00,71.4,53.9,30.12,SE,135,0.0,0.0,54,0.00,,CLR,0.00,VWS V14.01,2013-09-07 04:42:00,
2013-09-07 00:47:00,71.4,54.4,30.12,SE,135,0.0,0.0,55,0.00,,CLR,0.00,VWS V14.01,2013-09-07 04:47:00,
2013-09-07 00:52:00,71.2,54.3,30.12,SE,135,0.0,0.0,55,0.00,,CLR,0.00,VWS V14.01,2013-09-07 04:52:00,
2013-09-07 00:57:00,71.1,55.1,30.15,SE,135,0.0,0.0,57,0.00,,CLR,0.00,VWS V14.01,2013-09-07 04:57:00,
2013-09-07 01:00:00,71.1,55.1,30.15,SE,135,0.0,0.0,57,0.00,,BKN250,0.00,VWS V14.01,2013-09-07 05:00:00,
2013-09-07 01:02:00,71.1,56.0,30.15,SE,135,0.0,0.0,59,0.00,,CLR,0.00,VWS V14.01,2013-09-07 05:02:00,
2013-09-07 01:07:00,70.9,55.8,30.15,SE,135,0.0,0.0,59,0.00,,CLR,0.00,VWS V14.01,2013-09-07 05:07:00,
2013-09-07 01:12:00,70.7,56.2,30.12,SE,135,0.0,0.0,60,0.00,,CLR,0.00,VWS V14.01,2013-09-07 05:12:00,
2013-09-07 01:17:00,70.7,56.6,30.12,SE,135,0.0,0.0,61,0.00,,CLR,0.00,VWS V14.01,2013-09-07 05:17:00,
2013-09-07 01:21:00,70.5,56.9,30.12,SE,135,0.0,0.0,62,0.00,,CLR,0.00,VWS V14.01,2013-09-07 05:21:00,
2013-09-07 01:26:00,70.5,57.3,30.12,SE,135,0.0,0.0,63,0.00,,CLR,0.00,VWS V14.01,2013-09-07 05:26:00,
2013-09-07 01:31:00,70.3,57.2,30.12,SE,135,0.0,0.0,63,0.00,,CLR,0.00,VWS V14.01,2013-09-07 05:31:00,
2013-09-07 01:36:00,70.3,57.6,30.12,SE,135,0.0,0.0,64,0.00,,CLR,0.00,VWS V14.01,2013-09-07 05:36:00,
2013-09-07 01:41:00,70.2,57.9,30.15,SE,135,0.0,0.0,65,0.00,,CLR,0.00,VWS V14.01,2013-09-07 05:41:00,
2013-09-07 01:46:00,70.2,57.9,30.15,SE,135,0.0,0.0,65,0.00,,CLR,0.00,VWS V14.01,2013-09-07 05:46:00,
2013-09-07 01:51:00,70.2,57.9,30.15,SE,135,0.0,0.0,65,0.00,,CLR,0.00,VWS V14.01,2013-09-07 05:51:00,
2013-09-07 01:56:00,70.2,58.3,30.15,SE,135,0.0,0.0,66,0.00,,CLR,0.00,VWS V14.01,2013-09-07 05:56:00,
2013-09-07 02:00:00,70.2,58.3,30.15,SE,135,0.0,0.0,66,0.00,,BKN250,0.00,VWS V14.01,2013-09-07 06:00:00,
2013-09-07 02:01:00,70.0,58.5,30.15,SE,135,0.0,0.0,67,0.00,,CLR,0.00,VWS V14.01,2013-09-07 06:01:00,
2013-09-07 02:06:00,69.8,57.9,30.15,SE,135,0.0,0.0,66,0.00,,CLR,0.00,VWS V14.01,2013-09-07 06:06:00,
2013-09-07 02:11:00,69.8,58.4,30.15,SE,135,0.0,0.0,67,0.00,,CLR,0.00,VWS V14.01,2013-09-07 06:11:00,
2013-09-07 02:16:00,69.8,58.8,30.15,SE,135,0.0,0.0,68,0.00,,CLR,0.00,VWS V14.01,2013-09-07 06:16:00,
2013-09-07 02:21:00,69.6,58.6,30.15,SE,135,0.0,0.0,68,0.00,,CLR,0.00,VWS V14.01,2013-09-07 06:21:00,
2013-09-07 02:26:00,69.4,58.8,30.15,SE,135,0.0,0.0,69,0.00,,CLR,0.00,VWS V14.01,2013-09-07 06:26:00,
2013-09-07 02:31:00,69.4,58.8,30.15,SE,135,0.0,0.0,69,0.00,,CLR,0.00,VWS V14.01,2013-09-07 06:31:00,
2013-09-07 02:36:00,69.3,58.7,30.15,SE,135,0.0,0.0,69,0.00,,CLR,0.00,VWS V14.01,2013-09-07 06:36:00,
2013-09-07 02:41:00,69.1,58.9,30.15,SE,135,0.0,0.0,70,0.00,,CLR,0.00,VWS V14.01,2013-09-07 06:41:00,
2013-09-07 02:46:00,69.1,58.9,30.15,SE,135,0.0,0.0,70,0.00,,CLR,0.00,VWS V14.01,2013-09-07 06:46:00,
2013-09-07 02:51:00,69.1,58.9,30.15,SE,135,0.0,0.0,70,0.00,,CLR,0.00,VWS V14.01,2013-09-07 06:51:00,
2013-09-07 02:56:00,68.9,59.5,30.12,SE,135,0.0,0.0,72,0.00,,CLR,0.00,VWS V14.01,2013-09-07 06:56:00,
2013-09-07 03:00:00,68.9,59.5,30.12,SE,135,0.0,0.0,72,0.00,,BKN250,0.00,VWS V14.01,2013-09-07 07:00:00,
2013-09-07 03:01:00,68.9,59.5,30.12,SE,135,0.0,0.0,72,0.00,,CLR,0.00,VWS V14.01,2013-09-07 07:01:00,
2013-09-07 03:06:00,68.7,59.0,30.12,SE,135,0.0,0.0,71,0.00,,CLR,0.00,VWS V14.01,2013-09-07 07:06:00,
2013-09-07 03:11:00,68.7,59.0,30.15,SE,135,0.0,0.0,71,0.00,,CLR,0.00,VWS V14.01,2013-09-07 07:11:00,
2013-09-07 03:16:00,68.5,59.2,30.15,SE,135,0.0,0.0,72,0.00,,CLR,0.00,VWS V14.01,2013-09-07 07:16:00,
2013-09-07 03:21:00,68.5,59.2,30.15,SE,135,0.0,0.0,72,0.00,,CLR,0.00,VWS V14.01,2013-09-07 07:21:00,
2013-09-07 03:26:00,68.4,59.4,30.15,SE,135,0.0,0.0,73,0.00,,CLR,0.00,VWS V14.01,2013-09-07 07:26:00,
2013-09-07 03:31:00,68.4,59.4,30.15,SE,135,0.0,0.0,73,0.00,,,0.00,VWS V14.01,2013-09-07 07:31:00,
2013-09-07 03:36:00,68.2,59.6,30.15,SE,135,0.0,0.0,74,0.00,,,0.00,VWS V14.01,2013-09-07 07:36:00,
2013-09-07 03:41:00,68.2,59.6,30.15,SE,135,0.0,0.0,74,0.00,,,0.00,VWS V14.01,2013-09-07 07:41:00,
2013-09-07 03:46:00,68.2,60.0,30.15,SE,135,0.0,0.0,75,0.00,,,0.00,VWS V14.01,2013-09-07 07:46:00,
2013-09-07 03:51:00,68.0,59.4,30.15,SE,135,0.0,0.0,74,0.00,,,0.00,VWS V14.01,2013-09-07 07:51:00,
2013-09-07 03:56:00,67.8,59.6,30.15,SE,135,0.0,0.0,75,0.00,,,0.00,VWS V14.01,2013-09-07 07:56:00,
2013-09-07 04:00:00,68.9,59.5,30.12,SE,135,0.0,0.0,72,0.00,,,0.00,VWS V14.01,2013-09-07 08:00:00,
2013-09-07 04:01:00,67.8,59.6,30.15,SE,135,0.0,0.0,75,0.00,,,0.00,VWS V14.01,2013-09-07 08:01:00,
2013-09-07 04:06:00,67.8,59.6,30.15,SE,135,0.0,0.0,75,0.00,,,0.00,VWS V14.01,2013-09-07 08:06:00,
2013-09-07 04:11:00,67.8,60.0,30.15,SE,135,0.0,0.0,76,0.00,,,0.00,VWS V14.01,2013-09-07 08:11:00,
2013-09-07 04:16:00,67.6,59.4,30.15,SE,135,0.0,0.0,75,0.00,,,0.00,VWS V14.01,2013-09-07 08:16:00,
2013-09-07 04:21:00,67.6,60.2,30.15,SE,135,0.0,0.0,77,0.00,,,0.00,VWS V14.01,2013-09-07 08:21:00,
2013-09-07 04:26:00,67.6,60.5,30.15,SE,135,0.0,0.0,78,0.00,,,0.00,VWS V14.01,2013-09-07 08:26:00,
2013-09-07 04:31:00,67.5,60.0,30.15,SE,135,0.0,0.0,77,0.00,,,0.00,VWS V14.01,2013-09-07 08:31:00,
2013-09-07 04:36:00,67.5,60.4,30.15,SE,135,0.0,0.0,78,0.00,,,0.00,VWS V14.01,2013-09-07 08:36:00,
2013-09-07 04:41:00,67.5,60.7,30.15,SE,135,0.0,0.0,79,0.00,,,0.00,VWS V14.01,2013-09-07 08:41:00,
2013-09-07 04:46:00,67.5,60.7,30.15,SE,135,0.0,0.0,79,0.00,,,0.00,VWS V14.01,2013-09-07 08:46:00,
2013-09-07 04:51:00,67.3,60.5,30.15,SE,135,0.0,0.0,79,0.00,,,0.00,VWS V14.01,2013-09-07 08:51:00,
2013-09-07 04:56:00,67.3,60.5,30.15,SE,135,0.0,0.0,79,0.00,,,0.00,VWS V14.01,2013-09-07 08:56:00,
2013-09-07 05:00:00,67.3,60.2,30.15,SE,135,0.0,0.0,78,0.00,,BKN250,0.00,VWS V14.01,2013-09-07 09:00:00,
2013-09-07 05:01:00,67.1,60.0,30.15,SE,135,0.0,0.0,78,0.00,,,0.00,VWS V14.01,2013-09-07 09:01:00,
2013-09-07 05:06:00,67.1,60.4,30.15,SE,135,0.0,0.0,79,0.00,,,0.00,VWS V14.01,2013-09-07 09:06:00,
2013-09-07 05:11:00,67.1,60.7,30.15,SE,135,0.0,0.0,80,0.00,,,0.00,VWS V14.01,2013-09-07 09:11:00,
2013-09-07 05:16:00,66.9,60.6,30.15,SE,135,0.0,0.0,80,0.00,,CLR,0.00,VWS V14.01,2013-09-07 09:16:00,
2013-09-07 05:21:00,66.9,60.2,30.15,SE,135,0.0,0.0,79,0.00,,CLR,0.00,VWS V14.01,2013-09-07 09:21:00,
2013-09-07 05:26:00,66.9,60.6,30.15,SE,135,0.0,0.0,80,0.00,,CLR,0.00,VWS V14.01,2013-09-07 09:26:00,
2013-09-07 05:31:00,66.7,60.4,30.15,SE,135,0.0,0.0,80,0.00,,CLR,0.00,VWS V14.01,2013-09-07 09:31:00,
2013-09-07 05:36:00,66.7,60.7,30.15,SE,135,0.0,0.0,81,0.00,,CLR,0.00,VWS V14.01,2013-09-07 09:36:00,
2013-09-07 05:41:00,66.7,60.7,30.15,SE,135,0.0,0.0,81,0.00,,CLR,0.00,VWS V14.01,2013-09-07 09:41:00,
2013-09-07 05:46:00,66.6,60.6,30.15,SE,135,0.0,0.0,81,0.00,,CLR,0.00,VWS V14.01,2013-09-07 09:46:00,
2013-09-07 05:51:00,66.6,60.6,30.15,SE,135,0.0,0.0,81,0.00,,CLR,0.00,VWS V14.01,2013-09-07 09:51:00,
2013-09-07 05:56:00,66.6,60.6,30.15,SE,135,0.0,0.0,81,0.00,,CLR,0.00,VWS V14.01,2013-09-07 09:56:00,
2013-09-07 06:00:00,66.4,60.4,30.15,SE,135,0.0,0.0,81,0.00,,BKN250,0.00,VWS V14.01,2013-09-07 10:00:00,
2013-09-07 06:01:00,66.4,60.7,30.15,SE,135,0.0,0.0,82,0.00,,CLR,0.00,VWS V14.01,2013-09-07 10:01:00,
2013-09-07 06:06:00,66.4,60.7,30.15,SE,135,0.0,0.0,82,0.00,,CLR,0.00,VWS V14.01,2013-09-07 10:06:00,
2013-09-07 06:11:00,66.4,60.4,30.15,SE,135,0.0,0.0,81,0.00,,CLR,0.00,VWS V14.01,2013-09-07 10:11:00,
2013-09-07 06:16:00,66.4,60.7,30.15,SE,135,0.0,0.0,82,0.00,,CLR,0.00,VWS V14.01,2013-09-07 10:16:00,
2013-09-07 06:21:00,66.2,60.5,30.15,SE,135,0.0,0.0,82,0.00,,CLR,0.00,VWS V14.01,2013-09-07 10:21:00,
2013-09-07 06:26:00,66.2,60.5,30.12,SE,135,0.0,0.0,82,0.00,,CLR,0.00,VWS V14.01,2013-09-07 10:26:00,
2013-09-07 06:31:00,66.0,60.4,30.12,SE,135,0.0,0.0,82,0.00,,CLR,0.00,VWS V14.01,2013-09-07 10:31:00,
2013-09-07 06:36:00,66.0,60.7,30.12,SE,135,0.0,0.0,83,0.00,,CLR,0.00,VWS V14.01,2013-09-07 10:36:00,
2013-09-07 06:41:00,66.0,61.0,30.12,SE,135,0.0,0.0,84,0.00,,CLR,0.00,VWS V14.01,2013-09-07 10:41:00,
2013-09-07 06:46:00,66.0,61.4,30.12,SE,135,0.0,0.0,85,0.00,,,0.00,VWS V14.01,2013-09-07 10:46:00,
2013-09-07 06:51:00,66.0,61.0,30.12,SE,135,0.0,0.0,84,0.00,,,0.00,VWS V14.01,2013-09-07 10:51:00,
2013-09-07 06:56:00,65.8,60.9,30.15,SE,135,0.0,0.0,84,0.00,,,0.00,VWS V14.01,2013-09-07 10:56:00,
2013-09-07 07:00:00,65.8,60.9,30.15,SE,135,0.0,0.0,84,0.00,,BKN250,0.00,VWS V14.01,2013-09-07 11:00:00,
2013-09-07 07:01:00,65.8,60.9,30.15,SE,135,0.0,0.0,84,0.00,,,0.00,VWS V14.01,2013-09-07 11:01:00,
2013-09-07 07:06:00,65.8,60.9,30.15,SE,135,0.0,0.0,84,0.00,,,0.00,VWS V14.01,2013-09-07 11:06:00,
2013-09-07 07:11:00,65.8,61.2,30.15,SE,135,0.0,0.0,85,0.00,,,0.00,VWS V14.01,2013-09-07 11:11:00,
2013-09-07 07:16:00,65.8,61.2,30.15,SE,135,0.0,0.0,85,0.00,,,0.00,VWS V14.01,2013-09-07 11:16:00,
2013-09-07 07:21:00,65.8,61.5,30.15,SE,135,0.0,0.0,86,0.00,,,0.00,VWS V14.01,2013-09-07 11:21:00,
2013-09-07 07:26:00,65.7,61.4,30.15,SE,135,0.0,0.0,86,0.00,,,0.00,VWS V14.01,2013-09-07 11:26:00,
2013-09-07 07:31:00,65.7,61.7,30.15,SE,135,0.0,0.0,87,0.00,,,0.00,VWS V14.01,2013-09-07 11:31:00,
2013-09-07 07:36:00,65.7,61.7,30.15,SE,135,0.0,0.0,87,0.00,,,0.00,VWS V14.01,2013-09-07 11:36:00,
2013-09-07 07:41:00,65.7,62.0,30.15,SE,135,0.0,0.0,88,0.00,,,0.00,VWS V14.01,2013-09-07 11:41:00,
2013-09-07 07:46:00,65.8,62.2,30.15,SE,135,0.0,0.0,88,0.00,,,0.00,VWS V14.01,2013-09-07 11:46:00,
2013-09-07 07:51:00,65.7,61.7,30.15,SE,135,0.0,0.0,87,0.00,,,0.00,VWS V14.01,2013-09-07 11:51:00,
2013-09-07 07:56:00,65.8,61.9,30.15,SE,135,0.0,0.0,87,0.00,,,0.00,VWS V14.01,2013-09-07 11:56:00,
2013-09-07 08:00:00,65.8,61.9,30.15,SE,135,0.0,0.0,87,0.00,,BKN250,0.00,VWS V14.01,2013-09-07 12:00:00,
2013-09-07 08:01:00,66.0,62.4,30.15,SE,135,0.0,0.0,88,0.00,,,0.00,VWS V14.01,2013-09-07 12:01:00,
2013-09-07 08:06:00,66.0,62.4,30.15,SE,135,0.0,0.0,88,0.00,,,0.00,VWS V14.01,2013-09-07 12:06:00,
2013-09-07 08:11:00,66.2,62.2,30.15,SE,135,0.0,0.0,87,0.00,,,0.00,VWS V14.01,2013-09-07 12:11:00,
2013-09-07 08:16:00,66.4,62.4,30.15,SE,135,0.0,0.0,87,0.00,,,0.00,VWS V14.01,2013-09-07 12:16:00,
2013-09-07 08:21:00,66.7,62.8,30.15,SE,135,0.0,0.0,87,0.00,,,0.00,VWS V14.01,2013-09-07 12:21:00,
2013-09-07 08:26:00,66.9,62.9,30.15,SE,135,0.0,0.0,87,0.00,,,0.00,VWS V14.01,2013-09-07 12:26:00,
2013-09-07 08:31:00,67.1,63.1,30.15,SE,135,0.0,0.0,87,0.00,,,0.00,VWS V14.01,2013-09-07 12:31:00,
2013-09-07 08:36:00,67.5,63.1,30.15,SE,135,0.0,0.0,86,0.00,,,0.00,VWS V14.01,2013-09-07 12:36:00,
2013-09-07 08:41:00,67.6,63.0,30.15,SE,135,0.0,0.0,85,0.00,,,0.00,VWS V14.01,2013-09-07 12:41:00,
2013-09-07 08:46:00,68.0,62.7,30.15,SE,135,0.0,0.0,83,0.00,,,0.00,VWS V14.01,2013-09-07 12:46:00,
2013-09-07 08:51:00,68.2,62.8,30.15,SE,135,0.0,0.0,83,0.00,,,0.00,VWS V14.01,2013-09-07 12:51:00,
2013-09-07 08:56:00,68.7,62.7,30.15,SE,135,0.0,0.0,81,0.00,,,0.00,VWS V14.01,2013-09-07 12:56:00,
2013-09-07 09:00:00,68.7,62.7,30.15,SE,135,0.0,0.0,81,0.00,,BKN250,0.00,VWS V14.01,2013-09-07 13:00:00,
2013-09-07 09:01:00,68.7,62.3,30.15,SE,135,0.0,0.0,80,0.00,,,0.00,VWS V14.01,2013-09-07 13:01:00,
2013-09-07 09:06:00,69.1,62.3,30.15,SSE,158,0.0,0.0,79,0.00,,,0.00,VWS V14.01,2013-09-07 13:06:00,
2013-09-07 09:11:00,69.4,62.3,30.15,SE,135,0.0,0.0,78,0.00,,,0.00,VWS V14.01,2013-09-07 13:11:00,
2013-09-07 09:16:00,69.8,62.3,30.15,ESE,112,0.0,1.6,77,0.00,,FEW250,0.00,VWS V14.01,2013-09-07 13:16:00,
2013-09-07 09:21:00,70.0,62.1,30.15,SE,135,0.0,1.6,76,0.00,,FEW250,0.00,VWS V14.01,2013-09-07 13:21:00,
2013-09-07 09:26:00,70.3,62.0,30.15,South,180,0.0,1.6,75,0.00,,FEW250,0.00,VWS V14.01,2013-09-07 13:26:00,
2013-09-07 09:31:00,70.7,62.0,30.15,SW,225,0.0,1.6,74,0.00,,FEW250,0.00,VWS V14.01,2013-09-07 13:31:00,
2013-09-07 09:36:00,71.1,62.0,30.15,North,0,0.0,1.6,73,0.00,,FEW250,0.00,VWS V14.01,2013-09-07 13:36:00,
2013-09-07 09:41:00,71.2,61.4,30.15,WSW,248,0.0,1.6,71,0.00,,FEW250,0.00,VWS V14.01,2013-09-07 13:41:00,
2013-09-07 09:46:00,71.6,61.7,30.15,WNW,292,0.0,1.6,71,0.00,,FEW250,0.00,VWS V14.01,2013-09-07 13:46:00,
2013-09-07 09:51:00,72.1,61.8,30.15,SSE,158,2.0,3.1,70,0.00,,FEW250,0.00,VWS V14.01,2013-09-07 13:51:00,
2013-09-07 09:56:00,72.3,61.6,30.15,South,180,0.0,3.1,69,0.00,,FEW250,0.00,VWS V14.01,2013-09-07 13:56:00,
2013-09-07 10:00:00,72.5,61.3,30.15,WNW,292,0.0,3.1,68,0.00,,BKN250,0.00,VWS V14.01,2013-09-07 14:00:00,
2013-09-07 10:01:00,72.9,61.7,30.15,SSE,158,2.5,2.5,68,0.00,,FEW250,0.00,VWS V14.01,2013-09-07 14:01:00,
2013-09-07 10:06:00,73.2,61.6,30.15,WSW,248,1.6,2.7,67,0.00,,FEW250,0.00,VWS V14.01,2013-09-07 14:06:00,
2013-09-07 10:11:00,73.6,61.1,30.15,South,180,2.5,2.7,65,0.00,,FEW250,0.00,VWS V14.01,2013-09-07 14:11:00,
2013-09-07 10:16:00,73.9,61.0,30.15,South,180,2.0,2.9,64,0.00,,SCT250,0.00,VWS V14.01,2013-09-07 14:16:00,
2013-09-07 10:21:00,74.3,61.3,30.15,SSW,202,2.0,3.4,64,0.00,,SCT250,0.00,VWS V14.01,2013-09-07 14:21:00,
2013-09-07 10:26:00,74.7,60.8,30.15,SSW,202,2.7,3.4,62,0.00,,SCT250,0.00,VWS V14.01,2013-09-07 14:26:00,
2013-09-07 10:31:00,75.2,60.4,30.15,SW,225,1.6,3.4,60,0.00,,SCT250,0.00,VWS V14.01,2013-09-07 14:31:00,
2013-09-07 10:36:00,75.6,60.2,30.15,SW,225,2.9,3.4,59,0.00,,SCT250,0.00,VWS V14.01,2013-09-07 14:36:00,
2013-09-07 10:41:00,76.1,59.8,30.15,SSW,202,2.5,3.6,57,0.00,,SCT250,0.00,VWS V14.01,2013-09-07 14:41:00,
2013-09-07 10:46:00,76.5,59.6,30.15,SSW,202,1.3,3.6,56,0.00,,SCT250,0.00,VWS V14.01,2013-09-07 14:46:00,
2013-09-07 10:51:00,77.0,60.1,30.15,WSW,248,2.5,3.6,56,0.00,,SCT250,0.00,VWS V14.01,2013-09-07 14:51:00,
2013-09-07 10:56:00,77.2,58.7,30.12,SSW,202,1.3,3.6,53,0.00,,SCT250,0.00,VWS V14.01,2013-09-07 14:56:00,
2013-09-07 11:00:00,77.4,58.9,30.12,SSW,202,2.7,3.6,53,0.00,,BKN250,0.00,VWS V14.01,2013-09-07 15:00:00,
2013-09-07 11:01:00,77.5,58.5,30.12,South,180,2.9,3.4,52,0.00,,SCT250,0.00,VWS V14.01,2013-09-07 15:01:00,
2013-09-07 11:06:00,77.9,58.9,30.12,SW,225,1.3,3.4,52,0.00,,SCT250,0.00,VWS V14.01,2013-09-07 15:06:00,
2013-09-07 11:11:00,78.3,58.7,30.15,SSW,202,0.9,3.4,51,0.00,,SCT250,0.00,VWS V14.01,2013-09-07 15:11:00,
2013-09-07 11:16:00,78.6,58.4,30.15,South,180,2.0,3.4,50,0.00,,SCT250,0.00,VWS V14.01,2013-09-07 15:16:00,
2013-09-07 11:21:00,79.0,57.6,30.15,SW,225,1.6,3.4,48,0.00,,SCT250,0.00,VWS V14.01,2013-09-07 15:21:00,
2013-09-07 11:26:00,79.5,58.7,30.15,WSW,248,1.6,3.4,49,0.00,,SCT250,0.00,VWS V14.01,2013-09-07 15:26:00,
2013-09-07 11:31:00,79.9,57.9,30.15,SSE,158,2.2,3.4,47,0.00,,SCT250,0.00,VWS V14.01,2013-09-07 15:31:00,
2013-09-07 11:36:00,80.2,56.4,30.15,SE,135,0.0,3.4,44,0.00,,SCT250,0.00,VWS V14.01,2013-09-07 15:36:00,
2013-09-07 11:41:00,80.8,58.1,30.15,WSW,248,2.5,3.6,46,0.00,,SCT250,0.00,VWS V14.01,2013-09-07 15:41:00,
2013-09-07 11:46:00,81.1,57.8,30.15,WSW,248,1.1,3.6,45,0.00,,SCT250,0.00,VWS V14.01,2013-09-07 15:46:00,
2013-09-07 11:51:00,81.3,57.3,30.15,WSW,248,0.0,3.6,44,0.00,,SCT250,0.00,VWS V14.01,2013-09-07 15:51:00,
2013-09-07 11:56:00,81.9,57.2,30.15,WSW,248,2.0,3.6,43,0.00,,SCT250,0.00,VWS V14.01,2013-09-07 15:56:00,
2013-09-07 12:00:00,82.0,56.7,30.15,WNW,292,0.0,3.6,42,0.00,,BKN250,0.00,VWS V14.01,2013-09-07 16:00:00,
2013-09-07 12:01:00,82.4,57.0,30.15,SSW,202,2.5,2.9,42,0.00,,SCT250,0.00,VWS V14.01,2013-09-07 16:01:00,
2013-09-07 12:06:00,82.8,56.0,30.15,NW,315,0.9,3.1,40,0.00,,SCT250,0.00,VWS V14.01,2013-09-07 16:06:00,
2013-09-07 12:11:00,83.1,57.0,30.15,SSW,202,2.7,3.1,41,0.00,,SCT250,0.00,VWS V14.01,2013-09-07 16:11:00,
2013-09-07 12:16:00,83.5,56.6,30.15,WNW,292,0.0,3.1,40,0.00,,SCT250,0.00,VWS V14.01,2013-09-07 16:16:00,
2013-09-07 12:21:00,83.8,55.5,30.15,SSE,158,4.3,4.3,38,0.00,,SCT250,0.00,VWS V14.01,2013-09-07 16:21:00,
2013-09-07 12:26:00,83.8,54.8,30.15,SSW,202,1.1,4.3,37,0.00,,SCT250,0.00,VWS V14.01,2013-09-07 16:26:00,
2013-09-07 12:31:00,84.4,55.3,30.15,SSW,202,2.0,4.3,37,0.00,,SCT250,0.00,VWS V14.01,2013-09-07 16:31:00,
2013-09-07 12:36:00,84.9,55.8,30.15,SSW,202,1.1,4.3,37,0.00,,SCT250,0.00,VWS V14.01,2013-09-07 16:36:00,
2013-09-07 12:40:00,85.1,54.4,30.15,North,0,2.9,4.3,35,0.00,,SCT250,0.00,VWS V14.01,2013-09-07 16:40:00,
2013-09-07 12:45:00,85.3,53.0,30.15,NW,315,2.2,4.3,33,0.00,,SCT250,0.00,VWS V14.01,2013-09-07 16:45:00,
2013-09-07 12:50:00,85.3,53.0,30.15,NNW,338,2.2,4.3,33,0.00,,SCT250,0.00,VWS V14.01,2013-09-07 16:50:00,
2013-09-07 12:55:00,85.1,52.8,30.12,West,270,1.1,4.3,33,0.00,,SCT250,0.00,VWS V14.01,2013-09-07 16:55:00,
2013-09-07 13:00:00,85.8,53.4,30.12,SSE,158,2.5,2.5,33,0.00,,SCT250,0.00,VWS V14.01,2013-09-07 17:00:00,
2013-09-07 13:05:00,86.4,53.9,30.12,SW,225,2.9,2.9,33,0.00,,SCT250,0.00,VWS V14.01,2013-09-07 17:05:00,
2013-09-07 13:10:00,87.1,53.7,30.12,WSW,248,2.2,3.8,32,0.00,,SCT250,0.00,VWS V14.01,2013-09-07 17:10:00,
2013-09-07 13:15:00,87.3,53.8,30.12,South,180,2.9,3.8,32,0.00,,SCT250,0.00,VWS V14.01,2013-09-07 17:15:00,
2013-09-07 13:20:00,87.6,53.3,30.12,South,180,3.1,3.8,31,0.00,,SCT250,0.00,VWS V14.01,2013-09-07 17:20:00,
2013-09-07 13:25:00,87.8,53.4,30.09,SW,225,2.2,4.0,31,0.00,,SCT250,0.00,VWS V14.01,2013-09-07 17:25:00,
2013-09-07 13:30:00,88.3,53.0,30.09,SSE,158,0.0,4.0,30,0.00,,SCT250,0.00,VWS V14.01,2013-09-07 17:30:00,
2013-09-07 13:35:00,88.2,51.0,30.09,WNW,292,1.3,4.0,28,0.00,,SCT250,0.00,VWS V14.01,2013-09-07 17:35:00,
2013-09-07 13:40:00,87.6,50.5,30.09,NNW,338,0.0,4.0,28,0.00,,SCT250,0.00,VWS V14.01,2013-09-07 17:40:00,
2013-09-07 13:45:00,87.4,51.3,30.09,WNW,292,2.2,4.5,29,0.00,,SCT250,0.00,VWS V14.01,2013-09-07 17:45:00,
2013-09-07 13:50:00,88.0,50.8,30.09,North,0,4.0,5.4,28,0.00,,SCT250,0.00,VWS V14.01,2013-09-07 17:50:00,
2013-09-07 13:55:00,87.8,50.7,30.09,SSE,158,0.9,5.4,28,0.00,,SCT250,0.00,VWS V14.01,2013-09-07 17:55:00,
2013-09-07 14:00:00,88.3,52.1,30.09,SW,225,1.6,3.6,29,0.00,,SCT250,0.00,VWS V14.01,2013-09-07 18:00:00,
2013-09-07 14:05:00,89.1,51.8,30.09,SSW,202,3.4,3.6,28,0.00,,SCT250,0.00,VWS V14.01,2013-09-07 18:05:00,
2013-09-07 14:10:00,89.6,52.2,30.06,SSW,202,3.6,3.6,28,0.00,,SCT250,0.00,VWS V14.01,2013-09-07 18:10:00,
2013-09-07 14:15:00,90.0,51.5,30.06,ENE,68,3.4,4.5,27,0.00,,SCT250,0.00,VWS V14.01,2013-09-07 18:15:00,
2013-09-07 14:20:00,89.8,51.4,30.06,West,270,1.6,4.5,27,0.00,,SCT250,0.00,VWS V14.01,2013-09-07 18:20:00,
2013-09-07 14:25:00,89.6,50.2,30.09,NNW,338,2.7,4.5,26,0.00,,SCT250,0.00,VWS V14.01,2013-09-07 18:25:00,
2013-09-07 14:30:00,89.4,50.0,30.09,South,180,2.2,4.5,26,0.00,,SCT250,0.00,VWS V14.01,2013-09-07 18:30:00,
2013-09-07 14:35:00,89.4,49.0,30.09,SSW,202,1.3,4.5,25,0.00,,SCT250,0.00,VWS V14.01,2013-09-07 18:35:00,
2013-09-07 14:40:00,89.2,50.9,30.06,SW,225,2.2,4.5,27,0.00,,SCT250,0.00,VWS V14.01,2013-09-07 18:40:00,
2013-09-07 14:45:00,89.4,51.1,30.06,SSW,202,2.7,4.5,27,0.00,,SCT250,0.00,VWS V14.01,2013-09-07 18:45:00,
2013-09-07 14:50:00,89.8,51.4,30.06,ESE,112,4.0,4.5,27,0.00,,SCT250,0.00,VWS V14.01,2013-09-07 18:50:00,
2013-09-07 14:55:00,89.6,50.2,30.09,SSW,202,2.9,4.5,26,0.00,,SCT250,0.00,VWS V14.01,2013-09-07 18:55:00,
2013-09-07 15:00:00,89.1,47.6,30.09,SW,225,2.0,2.5,24,0.00,,SCT250,0.00,VWS V14.01,2013-09-07 19:00:00,
2013-09-07 15:05:00,89.1,51.8,30.09,WNW,292,2.2,2.5,28,0.00,,SCT250,0.00,VWS V14.01,2013-09-07 19:05:00,
2013-09-07 15:10:00,89.2,51.9,30.09,NNE,22,1.3,3.1,28,0.00,,SCT250,0.00,VWS V14.01,2013-09-07 19:10:00,
2013-09-07 15:15:00,89.2,50.9,30.09,WSW,248,2.0,3.6,27,0.00,,,0.00,VWS V14.01,2013-09-07 19:15:00,
2013-09-07 15:20:00,88.9,48.5,30.09,NNW,338,2.0,3.6,25,0.00,,,0.00,VWS V14.01,2013-09-07 19:20:00,
2013-09-07 15:25:00,88.7,49.5,30.06,SSW,202,2.9,3.6,26,0.00,,,0.00,VWS V14.01,2013-09-07 19:25:00,
2013-09-07 15:30:00,88.5,49.3,30.06,SW,225,2.5,3.6,26,0.00,,,0.00,VWS V14.01,2013-09-07 19:30:00,
2013-09-07 15:35:00,88.3,49.1,30.06,SSW,202,3.1,4.0,26,0.00,,,0.00,VWS V14.01,2013-09-07 19:35:00,
2013-09-07 15:40:00,88.3,48.1,30.06,SW,225,0.0,4.0,25,0.00,,,0.00,VWS V14.01,2013-09-07 19:40:00,
2013-09-07 15:45:00,88.5,50.3,30.06,South,180,2.9,4.0,27,0.00,,,0.00,VWS V14.01,2013-09-07 19:45:00,
2013-09-07 15:50:00,88.5,48.2,30.06,South,180,2.5,4.0,25,0.00,,,0.00,VWS V14.01,2013-09-07 19:50:00,
2013-09-07 15:55:00,88.5,51.3,30.03,WSW,248,3.4,4.0,28,0.00,,,0.00,VWS V14.01,2013-09-07 19:55:00,
2013-09-07 16:00:00,88.5,51.3,30.03,WNW,292,3.6,3.6,28,0.00,,,0.00,VWS V14.01,2013-09-07 20:00:00,
2013-09-07 16:05:00,88.3,51.1,30.03,WSW,248,0.9,3.6,28,0.00,,,0.00,VWS V14.01,2013-09-07 20:05:00,
2013-09-07 16:10:00,88.3,51.1,30.03,WSW,248,2.7,3.6,28,0.00,,,0.00,VWS V14.01,2013-09-07 20:10:00,
2013-09-07 16:15:00,88.3,51.1,30.03,SSW,202,3.6,3.6,28,0.00,,CLR,0.00,VWS V14.01,2013-09-07 20:15:00,
2013-09-07 16:20:00,88.3,51.1,30.03,WSW,248,0.0,4.0,28,0.00,,CLR,0.00,VWS V14.01,2013-09-07 20:20:00,
2013-09-07 16:25:00,88.2,51.0,30.03,SSE,158,0.0,4.0,28,0.00,,CLR,0.00,VWS V14.01,2013-09-07 20:25:00,
2013-09-07 16:30:00,88.0,50.8,30.03,SSW,202,2.2,4.0,28,0.00,,CLR,0.00,VWS V14.01,2013-09-07 20:30:00,
2013-09-07 16:35:00,88.0,50.8,30.03,SE,135,2.2,4.0,28,0.00,,CLR,0.00,VWS V14.01,2013-09-07 20:35:00,
2013-09-07 16:40:00,88.0,50.8,30.03,South,180,2.9,4.0,28,0.00,,CLR,0.00,VWS V14.01,2013-09-07 20:40:00,
2013-09-07 16:45:00,88.0,50.8,30.03,SSW,202,2.0,4.0,28,0.00,,CLR,0.00,VWS V14.01,2013-09-07 20:45:00,
2013-09-07 16:50:00,88.0,50.8,30.03,SSW,202,3.1,4.0,28,0.00,,CLR,0.00,VWS V14.01,2013-09-07 20:50:00,
2013-09-07 16:55:00,88.0,50.8,30.03,SSW,202,4.0,4.9,28,0.00,,CLR,0.00,VWS V14.01,2013-09-07 20:55:00,
2013-09-07 17:00:00,87.4,50.4,30.03,SSW,202,0.0,2.9,28,0.00,,CLR,0.00,VWS V14.01,2013-09-07 21:00:00,
2013-09-07 17:05:00,87.1,51.0,30.03,South,180,4.3,4.3,29,0.00,,CLR,0.00,VWS V14.01,2013-09-07 21:05:00,
2013-09-07 17:10:00,87.3,51.2,30.03,WSW,248,2.2,4.3,29,0.00,,CLR,0.00,VWS V14.01,2013-09-07 21:10:00,
2013-09-07 17:15:00,87.3,51.2,30.03,SW,225,1.6,4.3,29,0.00,,CLR,0.00,VWS V14.01,2013-09-07 21:15:00,
2013-09-07 17:20:00,87.4,51.3,30.03,SW,225,2.7,4.3,29,0.00,,CLR,0.00,VWS V14.01,2013-09-07 21:20:00,
2013-09-07 17:25:00,87.6,51.5,30.03,SW,225,2.5,4.3,29,0.00,,CLR,0.00,VWS V14.01,2013-09-07 21:25:00,
2013-09-07 17:30:00,87.8,50.7,30.03,West,270,2.0,4.3,28,0.00,,CLR,0.00,VWS V14.01,2013-09-07 21:30:00,
2013-09-07 17:35:00,88.0,51.8,30.03,SSE,158,2.2,4.3,29,0.00,,CLR,0.00,VWS V14.01,2013-09-07 21:35:00,
2013-09-07 17:40:00,88.3,52.1,30.03,SW,225,2.9,4.3,29,0.00,,CLR,0.00,VWS V14.01,2013-09-07 21:40:00,
2013-09-07 17:45:00,88.5,51.3,30.03,South,180,2.9,4.3,28,0.00,,CLR,0.00,VWS V14.01,2013-09-07 21:45:00,
2013-09-07 17:50:00,88.3,51.1,30.03,SSW,202,2.0,4.3,28,0.00,,CLR,0.00,VWS V14.01,2013-09-07 21:50:00,
2013-09-07 17:55:00,88.2,51.0,30.03,SSE,158,2.9,4.3,28,0.00,,CLR,0.00,VWS V14.01,2013-09-07 21:55:00,
2013-09-07 18:00:00,88.0,50.8,30.03,SSE,158,0.0,3.1,28,0.00,,CLR,0.00,VWS V14.01,2013-09-07 22:00:00,
2013-09-07 18:05:00,88.0,50.8,30.03,SW,225,1.3,3.1,28,0.00,,CLR,0.00,VWS V14.01,2013-09-07 22:05:00,
2013-09-07 18:10:00,88.0,50.8,30.00,SW,225,2.7,3.1,28,0.00,,CLR,0.00,VWS V14.01,2013-09-07 22:10:00,
2013-09-07 18:15:00,87.6,50.5,30.00,WSW,248,2.9,3.4,28,0.00,,CLR,0.00,VWS V14.01,2013-09-07 22:15:00,
2013-09-07 18:20:00,87.3,50.2,30.00,SW,225,2.0,3.6,28,0.00,,CLR,0.00,VWS V14.01,2013-09-07 22:20:00,
2013-09-07 18:25:00,87.1,50.1,30.03,WSW,248,2.2,3.6,28,0.00,,CLR,0.00,VWS V14.01,2013-09-07 22:25:00,
2013-09-07 18:30:00,86.5,49.6,30.03,SW,225,2.0,3.6,28,0.00,,CLR,0.00,VWS V14.01,2013-09-07 22:30:00,
2013-09-07 18:35:00,86.4,50.4,30.03,WSW,248,0.0,3.6,29,0.00,,CLR,0.00,VWS V14.01,2013-09-07 22:35:00,
2013-09-07 18:40:00,85.8,49.9,30.03,South,180,2.2,3.6,29,0.00,,CLR,0.00,VWS V14.01,2013-09-07 22:40:00,
2013-09-07 18:45:00,85.3,50.4,30.03,WSW,248,2.0,3.6,30,0.00,,CLR,0.00,VWS V14.01,2013-09-07 22:45:00,
2013-09-07 18:50:00,85.1,50.2,30.03,WSW,248,1.1,3.6,30,0.00,,CLR,0.00,VWS V14.01,2013-09-07 22:50:00,
2013-09-07 18:55:00,84.6,49.8,30.03,SW,225,1.3,3.6,30,0.00,,CLR,0.00,VWS V14.01,2013-09-07 22:55:00,
2013-09-07 19:00:00,84.2,50.3,30.03,SSW,202,2.0,2.7,31,0.00,,CLR,0.00,VWS V14.01,2013-09-07 23:00:00,
2013-09-07 19:05:00,84.0,50.2,30.03,WSW,248,1.6,3.6,31,0.00,,CLR,0.00,VWS V14.01,2013-09-07 23:05:00,
2013-09-07 19:10:00,83.8,50.9,30.03,SSW,202,1.6,3.6,32,0.00,,CLR,0.00,VWS V14.01,2013-09-07 23:10:00,
2013-09-07 19:15:00,83.3,50.4,30.03,WSW,248,1.3,3.6,32,0.00,,CLR,0.00,VWS V14.01,2013-09-07 23:15:00,
2013-09-07 19:20:00,83.1,50.2,30.03,WSW,248,1.6,3.6,32,0.00,,CLR,0.00,VWS V14.01,2013-09-07 23:20:00,
2013-09-07 19:25:00,82.8,50.8,30.03,SSW,202,1.1,3.6,33,0.00,,CLR,0.00,VWS V14.01,2013-09-07 23:25:00,
2013-09-07 19:30:00,82.6,50.6,30.03,WSW,248,0.0,3.6,33,0.00,,CLR,0.00,VWS V14.01,2013-09-07 23:30:00,
2013-09-07 19:35:00,82.4,50.4,30.03,WSW,248,0.9,3.6,33,0.00,,CLR,0.00,VWS V14.01,2013-09-07 23:35:00,
2013-09-07 19:40:00,82.0,50.9,30.06,WSW,248,0.0,3.6,34,0.00,,CLR,0.00,VWS V14.01,2013-09-07 23:40:00,
2013-09-07 19:45:00,81.9,51.5,30.06,WSW,248,0.0,3.6,35,0.00,,CLR,0.00,VWS V14.01,2013-09-07 23:45:00,
2013-09-07 19:50:00,81.7,51.4,30.06,WSW,248,0.0,3.6,35,0.00,,CLR,0.00,VWS V14.01,2013-09-07 23:50:00,
2013-09-07 19:55:00,81.3,51.1,30.00,WSW,248,0.0,3.6,35,0.00,,CLR,0.00,VWS V14.01,2013-09-07 23:55:00,
2013-09-07 20:00:00,81.1,51.7,30.00,WSW,248,0.0,0.0,36,0.00,,CLR,0.00,VWS V14.01,2013-09-08 00:00:00,
2013-09-07 20:05:00,80.8,51.4,30.00,WSW,248,0.0,2.2,36,0.00,,CLR,0.00,VWS V14.01,2013-09-08 00:05:00,
2013-09-07 20:10:00,80.6,52.0,30.03,SW,225,1.1,2.2,37,0.00,,CLR,0.00,VWS V14.01,2013-09-08 00:10:00,
2013-09-07 20:15:00,80.2,52.3,30.03,SW,225,0.0,2.2,38,0.00,,CLR,0.00,VWS V14.01,2013-09-08 00:15:00,
2013-09-07 20:20:00,80.1,52.9,30.03,WSW,248,0.0,2.2,39,0.00,,CLR,0.00,VWS V14.01,2013-09-08 00:20:00,
2013-09-07 20:25:00,79.7,52.6,30.06,SW,225,0.0,2.2,39,0.00,,CLR,0.00,VWS V14.01,2013-09-08 00:25:00,
2013-09-07 20:30:00,79.5,53.1,30.06,SSW,202,0.0,2.2,40,0.00,,CLR,0.00,VWS V14.01,2013-09-08 00:30:00,
2013-09-07 20:35:00,79.3,53.0,30.06,SSW,202,0.0,2.2,40,0.00,,CLR,0.00,VWS V14.01,2013-09-08 00:35:00,
2013-09-07 20:40:00,79.2,53.5,30.03,SSW,202,0.0,2.2,41,0.00,,CLR,0.00,VWS V14.01,2013-09-08 00:40:00,
2013-09-07 20:45:00,79.0,53.3,30.03,SSW,202,0.0,2.2,41,0.00,,CLR,0.00,VWS V14.01,2013-09-08 00:45:00,
2013-09-07 20:50:00,78.6,53.6,30.03,South,180,0.0,2.2,42,0.00,,CLR,0.00,VWS V14.01,2013-09-08 00:50:00,
2013-09-07 20:55:00,78.4,53.5,30.03,South,180,0.0,2.2,42,0.00,,CLR,0.00,VWS V14.01,2013-09-08 00:55:00,
2013-09-07 21:00:00,78.3,54.0,30.03,South,180,0.0,0.0,43,0.00,,CLR,0.00,VWS V14.01,2013-09-08 01:00:00,
2013-09-07 21:05:00,78.3,54.0,30.03,South,180,0.0,0.0,43,0.00,,CLR,0.00,VWS V14.01,2013-09-08 01:05:00,
2013-09-07 21:10:00,78.1,53.8,30.03,South,180,0.0,0.0,43,0.00,,CLR,0.00,VWS V14.01,2013-09-08 01:10:00,
2013-09-07 21:15:00,78.1,53.8,30.03,South,180,0.0,0.0,43,0.00,,CLR,0.00,VWS V14.01,2013-09-08 01:15:00,
2013-09-07 21:20:00,77.9,54.3,30.03,South,180,0.0,0.0,44,0.00,,CLR,0.00,VWS V14.01,2013-09-08 01:20:00,
2013-09-07 21:25:00,77.7,54.1,30.03,South,180,0.0,0.0,44,0.00,,CLR,0.00,VWS V14.01,2013-09-08 01:25:00,
2013-09-07 21:30:00,77.5,53.9,30.03,South,180,0.0,0.0,44,0.00,,CLR,0.00,VWS V14.01,2013-09-08 01:30:00,
2013-09-07 21:35:00,77.4,54.4,30.03,South,180,0.0,0.0,45,0.00,,CLR,0.00,VWS V14.01,2013-09-08 01:35:00,
2013-09-07 21:40:00,77.2,54.8,30.03,South,180,0.0,0.0,46,0.00,,CLR,0.00,VWS V14.01,2013-09-08 01:40:00,
2013-09-07 21:45:00,77.0,55.2,30.03,South,180,0.0,0.0,47,0.00,,CLR,0.00,VWS V14.01,2013-09-08 01:45:00,
2013-09-07 21:50:00,76.8,55.7,30.03,South,180,0.0,0.0,48,0.00,,CLR,0.00,VWS V14.01,2013-09-08 01:50:00,
2013-09-07 21:55:00,76.6,56.1,30.03,South,180,0.0,0.0,49,0.00,,CLR,0.00,VWS V14.01,2013-09-08 01:55:00,
2013-09-07 22:00:00,76.5,55.9,30.03,South,180,0.0,0.0,49,0.00,,CLR,0.00,VWS V14.01,2013-09-08 02:00:00,
2013-09-07 22:05:00,76.3,56.3,30.03,South,180,0.0,0.0,50,0.00,,CLR,0.00,VWS V14.01,2013-09-08 02:05:00,
2013-09-07 22:10:00,76.1,56.1,30.03,South,180,0.0,0.0,50,0.00,,CLR,0.00,VWS V14.01,2013-09-08 02:10:00,
2013-09-07 22:15:00,75.9,56.5,30.03,South,180,0.0,0.0,51,0.00,,CLR,0.00,VWS V14.01,2013-09-08 02:15:00,
2013-09-07 22:20:00,75.9,56.5,30.03,South,180,0.0,0.0,51,0.00,,CLR,0.00,VWS V14.01,2013-09-08 02:20:00,
2013-09-07 22:25:00,75.7,56.9,30.03,South,180,0.0,0.0,52,0.00,,CLR,0.00,VWS V14.01,2013-09-08 02:25:00,
2013-09-07 22:30:00,75.7,56.9,30.03,South,180,0.0,0.0,52,0.00,,CLR,0.00,VWS V14.01,2013-09-08 02:30:00,
2013-09-07 22:35:00,75.6,57.2,30.03,South,180,0.0,0.0,53,0.00,,CLR,0.00,VWS V14.01,2013-09-08 02:35:00,
2013-09-07 22:40:00,75.4,57.1,30.03,South,180,0.0,0.0,53,0.00,,CLR,0.00,VWS V14.01,2013-09-08 02:40:00,
2013-09-07 22:45:00,75.4,57.6,30.03,South,180,0.0,0.0,54,0.00,,CLR,0.00,VWS V14.01,2013-09-08 02:45:00,
2013-09-07 22:50:00,75.2,57.4,30.03,South,180,0.0,0.0,54,0.00,,CLR,0.00,VWS V14.01,2013-09-08 02:50:00,
2013-09-07 22:55:00,75.2,58.4,30.00,South,180,0.0,0.0,56,0.00,,CLR,0.00,VWS V14.01,2013-09-08 02:55:00,
2013-09-07 23:00:00,75.0,58.8,30.00,South,180,0.0,0.0,57,0.00,,CLR,0.00,VWS V14.01,2013-09-08 03:00:00,
2013-09-07 23:05:00,74.8,58.6,30.00,South,180,0.0,0.0,57,0.00,,CLR,0.00,VWS V14.01,2013-09-08 03:05:00,
2013-09-07 23:10:00,74.8,59.1,30.03,South,180,0.0,0.0,58,0.00,,CLR,0.00,VWS V14.01,2013-09-08 03:10:00,
2013-09-07 23:15:00,74.7,58.9,30.03,South,180,0.0,0.0,58,0.00,,CLR,0.00,VWS V14.01,2013-09-08 03:15:00,
2013-09-07 23:20:00,74.5,59.2,30.03,South,180,0.0,0.0,59,0.00,,CLR,0.00,VWS V14.01,2013-09-08 03:20:00,
2013-09-07 23:25:00,74.5,59.2,30.03,South,180,0.0,0.0,59,0.00,,CLR,0.00,VWS V14.01,2013-09-08 03:25:00,
2013-09-07 23:30:00,74.5,59.7,30.03,South,180,0.0,0.0,60,0.00,,CLR,0.00,VWS V14.01,2013-09-08 03:30:00,
2013-09-07 23:35:00,74.5,59.7,30.03,South,180,0.0,0.0,60,0.00,,CLR,0.00,VWS V14.01,2013-09-08 03:35:00,
2013-09-07 23:40:00,74.3,60.0,30.03,South,180,0.0,0.0,61,0.00,,CLR,0.00,VWS V14.01,2013-09-08 03:40:00,
2013-09-07 23:45:00,74.3,60.0,30.03,South,180,0.0,0.0,61,0.00,,CLR,0.00,VWS V14.01,2013-09-08 03:45:00,
2013-09-07 23:50:00,74.5,60.6,30.03,South,180,0.0,0.0,62,0.00,,CLR,0.00,VWS V14.01,2013-09-08 03:50:00,
2013-09-07 23:55:00,74.5,60.6,30.03,South,180,0.0,0.0,62,0.00,,CLR,0.00,VWS V14.01,2013-09-08 03:55:00,